Regional Weather Roundup
Issued by NWS

Home | Current Version | Previous Version | Text Only | Print | Product List | Glossary On
Versions: 1 2 3 4 5 6 7 8 9 10 11 12 13 14 15 16 17 18 19 20 21 22 23 24 25 26 27 28 29 30 31 32 33 34 35 36 37 38 39 40 41 42 43 44 45 46 47 48 49 50
000
ASUS43 KDTX 072001
RWRMI
MICHIGAN HOURLY REGIONAL WEATHER ROUNDUP
NATIONAL WEATHER SERVICE DETROIT/PONTIAC MI
400 PM EDT TUE JUL 07 2015

NOTE: "FAIR" INDICATES FEW OR NO CLOUDS BELOW 12,000 FEET WITH NO
SIGNIFICANT WEATHER AND/OR OBSTRUCTION TO VISIBILITY.

MIZ047>049-052>055-059>063-066>070-074>076-081>083-072100-
SOUTHEAST LOWER MICHIGAN

CITY           SKY/WX    TMP DP  RH WIND       PRES   REMARKS
ADRIAN         CLOUDY    66  62  87 N10       29.93R
ALMA           CLOUDY    66  54  65 N8        29.96R
ANN ARBOR      CLOUDY    66  63  90 NW13G21   29.92R
BAD AXE        CLOUDY    62  59  90 N12G17    29.93R
CARO           CLOUDY    64  61  88 N7        29.92R
DETROIT CITY   LGT RAIN  67  64  90 NW10      29.89R FOG
DETROIT        CLOUDY    70  64  83 NW12      29.90R
FLINT          CLOUDY    67  61  81 NW12      29.93R HAZE
GROSSE ILE     HVY RAIN  70  66  88 NW12      29.88R
HILLSDALE      CLOUDY    66  65  94 N9G17     29.95R
HOWELL         CLOUDY    64  62  92 NW6       29.94R

CITY           SKY/WX    TMP DP  RH WIND       PRES   REMARKS
JACKSON        CLOUDY    66  60  81 N9        29.95R
LAMBERTVILLE   HVY RAIN  75  71  87 W6        29.90R
LANSING        CLOUDY    67  57  70 NW8       29.95R
LAPEER         DRIZZLE   63  62  94 N6        29.92R
MASON          CLOUDY    64  59  83 N7        29.94R
MONROE         HVY RAIN  68  67  96 NW16      29.89R
MT. CLEMENS    PTSUNNY   67  65  94 N15       29.87R
PONTIAC        DRIZZLE   64  62  93 NW12      29.91R FOG
PORT HOPE        N/A     63  60  90 MISG      29.91R
PORT HURON     RAIN      61  61 100 N8        29.91R
TRI CITIES     CLOUDY    69  55  60 N16       29.95R
MIDLAND        CLOUDY    66  54  65 NW9G17    29.95R
TROY           CLOUDY    67  64  89 NW13      29.92R
SAGINAW HB     CLOUDY    64  59  82 NW12      29.93R
$$
MIZ043>046-050>051-056>058-064>065-071>073-077>080-072100-
SOUTHWEST LOWER MICHIGAN

CITY           SKY/WX    TMP DP  RH WIND       PRES   REMARKS
BATTLE CREEK   CLOUDY    71  58  63 NW7       29.96R
BENTON HARBOR  SUNNY     63  50  62 VRB7G21   30.01R
BIG RAPIDS     MOSUNNY   67  47  49 N10G20    29.97R
COLDWATER      CLOUDY    68  60  75 N9        29.95R
FREMONT        FAIR      67  48  50 N13G21    29.98S
HOLLAND        SUNNY     68  51  54 NW15G23   29.99R
GRAND RAPIDS   PTSUNNY   70  55  59 N15       29.96R
IONIA          CLOUDY    66  55  67 N12       29.95R
KALAMAZOO      CLOUDY    73  57  57 NW7       29.96R
LUDINGTON      MOSUNNY   64  48  57 N18G25    30.03R
MARSHALL       CLOUDY    69  59  70 NW5       29.95R
MOUNT PLEASANT CLOUDY    66  51  59 NW8G16    29.96R
MUSKEGON       MOSUNNY   70  49  47 NW18G25   29.99R
SOUTH HAVEN    SUNNY     63  52  66 N17G24    30.00R
$$
MIZ016>042-072100-
NORTHERN LOWER MICHIGAN

CITY           SKY/WX    TMP DP  RH WIND       PRES   REMARKS
ALPENA         CLOUDY    65  50  58 NW14G28   29.94R
BEAVER ISLAND  CLOUDY    63  49  61 N8G17     30.02R
BELLAIRE       PTSUNNY   63  47  54 NW9       30.00R
CADILLAC       MOSUNNY   64  47  54 N15G23    29.99R
CHARLEVOIX     MOSUNNY   63  48  57 N10       30.03R
FRANKFORT      SUNNY     65  46  49 N14G21    30.03S
GAYLORD        CLOUDY    64  48  56 NW9       29.98R
GRAYLING       CLOUDY    63  48  58 N12G23    29.98R
HARBOR SPRINGS CLOUDY    65  47  52 NW14G21   29.99R
HOUGHTON LAKE  PTSUNNY   64  48  56 N12G22    29.98R
MANISTEE       MOSUNNY   61  46  59 N22G28    30.04R
OSCODA         CLOUDY    65  56  74 N9        29.92R
PELLSTON       PTSUNNY   65  46  50 NW17G25   29.99R
ROGERS CITY    MOSUNNY   64  49  59 NW17G25   29.96R
TRAVERSE CITY  PTSUNNY   66  47  50 N16G25    30.00R
$$
MIZ007>008-015-072100-
EASTERN UPPER MICHIGAN

CITY           SKY/WX    TMP DP  RH WIND       PRES   REMARKS
KINROSS        MOSUNNY   61  48  63 N18       29.97R
MACKINAC ISLAN MOSUNNY   63  47  56 NW10G21   29.97S
NEWBERRY       CLOUDY    59  48  68 N15G22    30.02R
S. S. MARIE    MOSUNNY   61  49  64 NW16      29.97R
$$
MIZ004>006-011>014-085-072100-
CENTRAL UPPER MICHIGAN

CITY           SKY/WX    TMP DP  RH WIND       PRES   REMARKS
MANISTIQUE     MOSUNNY   64  46  53 NW18G28   30.02R
ESCANABA       SUNNY     66  45  45 N12G20    30.04S
MENOMINEE      PTSUNNY   66  46  48 N14G20    30.05S
SAWYER-GWINN   SUNNY     63  43  48 N20G25    30.07R
$$
MIZ001>003-009>011-084-072100-
WESTERN UPPER MICHIGAN

CITY           SKY/WX    TMP DP  RH WIND       PRES   REMARKS
IRON MOUNTAIN  CLOUDY    65  46  50 N12       30.06S
HOUGHTON       SUNNY     64  43  46 NW10      30.08F
COPPER HARBOR    N/A     64  47  53 N14       30.06F
IRONWOOD       SUNNY     63  45  51 NW10      30.10F
$$

ABBREVIATIONS USED IN REMARKS
   TC - TEMPERATURE IN CELSIUS
  WCI - WIND CHILL INDEX
   HX - HEAT INDEX
  VSB - VISIBILITY



USA.gov is the U.S. government's official web portal to all federal, state and local government web resources and services.